SCP
1 1 2 1 1 1 1 1 1 1 1 1 1 1 1 1 1 1 1 0 0 0 0 0 0 0 0 0 0 0 0 0 0 1 1 1 2 2
1 1 2 2 2 1 1 1 1 1 1 1 1 1 1 1 1 1 1 0 0 0 0 0 0 0 0 0 0 0 0 0 0 0 1 1 1 2
1 1 2 2 3 3 2 1 1 1 1 1 1 1 1 1 1 1 1 0 0 0 0 0 0 0 0 0 0 0 0 0 0 0 0 1 1 1
1 1 1 2 3 3 2 1 1 1 1 1 1 1 1 1 1 1 1 1 0 0 0 0 0 0 0 0 0 0 0 0 0 0 0 0 1 1
1 1 1 1 2 3 3 2 1 1 1 1 2 2 2 1 1 1 1 1 1 0 0 0 0 0 0 0 0 0 0 0 0 0 0 0 0 0
1 1 1 1 2 2 3 2 2 2 2 2 2 2 2 1 1 1 1 2 2 1 1 1 1 1 0 0 0 0 0 0 0 0 0 0 0 0
1 2 2 1 1 1 2 2 2 2 2 2 2 2 2 1 1 1 2 2 3 3 3 2 2 2 1 1 0 0 0 0 0 0 0 0 0 0
2 2 2 1 1 1 1 1 1 1 1 1 1 1 1 1 2 2 2 2 3 3 3 2 2 2 2 1 0 0 0 0 0 0 0 0 0 0
2 2 2 1 1 1 1 0 0 0 1 1 1 1 1 1 1 2 2 2 2 2 2 2 2 2 2 1 1 0 0 0 0 0 0 0 0 0
2 2 2 1 1 1 1 1 1 1 0 0 1 1 1 1 1 1 1 1 1 2 2 2 1 1 1 1 1 0 0 0 0 0 0 0 0 0
1 1 1 1 1 1 1 1 1 1 1 0 0 0 0 0 1 1 1 1 1 1 1 1 1 1 1 1 1 1 0 0 0 0 0 0 0 0
1 1 1 1 0 0 1 1 1 1 1 1 1 0 0 0 0 1 1 1 1 1 1 1 1 1 1 1 1 1 1 0 0 0 0 0 0 0
1 1 1 1 0 0 0 1 1 1 1 1 1 1 0 0 0 0 0 0 0 1 1 1 1 0 1 1 1 1 1 1 1 0 0 0 0 0
1 1 1 0 0 0 0 0 0 1 1 1 1 1 0 0 0 0 0 0 0 0 0 0 0 0 0 0 1 1 1 1 1 1 1 0 0 0
0 0 0 0 0 0 0 0 0 1 1 1 0 0 0 0 0 0 0 0 0 0 0 0 0 0 0 0 1 1 1 1 1 1 1 0 0 0
0 0 0 0 0 0 0 0 0 0 0 0 0 0 0 0 0 0 0 0 0 0 0 0 0 0 0 0 0 1 1 1 1 1 1 1 1 1
0 0 0 0 0 0 0 0 0 0 0 0 0 0 0 0 0 0 0 0 0 0 0 0 0 0 0 0 0 0 0 1 1 1 0 0 0 1
0 0 0 0 0 0 0 0 0 0 0 0 0 0 0 0 0 0 0 0 0 0 0 0 0 0 0 0 0 0 0 1 0 0 0 0 0 0
0 0 0 0 0 0 0 0 0 0 0 0 0 0 0 0 0 0 0 0 0 0 0 0 0 0 0 0 0 0 0 1 1 0 0 0 0 0
0 0 0 0 0 0 0 0 0 0 0 0 0 0 0 0 0 0 0 0 0 0 0 0 0 0 0 0 0 0 0 0 1 1 1 0 0 0
0 0 0 0 0 0 0 0 0 0 0 0 0 0 0 0 0 0 0 0 0 0 0 0 0 0 0 0 0 0 0 0 0 0 0 0 0 0
0 0 0 0 0 0 0 0 0 0 0 0 0 0 0 0 0 0 0 0 0 0 0 0 0 0 0 0 0 0 0 0 0 0 0 0 0 0
0 0 0 0 0 0 0 0 0 0 0 0 0 0 0 0 0 0 0 0 0 0 0 0 0 0 0 0 0 0 0 0 0 0 0 0 0 0
Wind_Speed
6 7 7 5 5 5 4 5 5 5 3 4 4 3 4 3 3 6 6 8 10 9 9 9 9 9 9 9 9 9 9 9 9 9 10 10 10 11
5 5 6 5 4 5 5 5 5 6 5 2 2 2 1 3 4 5 6 7 9 10 9 9 9 9 9 9 9 9 9 9 10 10 10 10 10 11
6 6 7 6 5 5 5 5 5 5 6 5 3 2 3 5 2 4 5 6 7 11 10 9 9 9 9 9 9 9 9 9 10 10 10 10 10 11
7 7 7 5 6 6 5 6 5 5 6 7 4 3 4 5 4 6 6 5 5 8 10 9 8 8 8 8 9 9 9 9 9 10 10 10 10 11
7 7 7 7 7 6 6 6 5 6 5 6 6 3 4 4 4 6 6 4 7 5 9 10 9 8 8 8 8 8 9 9 9 9 10 10 10 11
6 6 6 6 7 6 6 6 6 5 5 6 6 4 4 3 4 5 5 4 5 5 3 4 8 10 11 10 9 8 8 8 8 9 9 10 10 10
4 4 4 2 2 2 4 4 5 5 5 5 5 4 3 2 3 4 5 5 4 4 5 5 5 6 7 10 10 7 6 6 7 8 8 9 9 10
4 3 3 3 2 2 2 4 4 4 4 4 3 3 3 4 4 5 5 6 5 3 4 6 5 5 5 5 3 5 5 5 5 6 7 8 9 10
3 3 2 2 3 3 3 2 1 3 3 4 4 4 4 4 5 6 5 6 6 6 5 7 6 5 5 1 4 2 2 3 4 5 6 7 8 9
2 1 1 1 1 1 2 2 2 2 1 1 2 3 3 4 5 6 6 6 7 5 4 6 5 5 5 3 3 3 2 2 3 4 5 6 7 9
4 3 2 2 4 2 1 2 2 2 4 4 3 2 3 4 5 5 5 6 6 3 2 5 5 6 6 5 3 6 5 5 6 6 7 7 8 9
5 6 9 6 6 4 1 2 2 1 1 2 2 2 0 1 1 4 5 5 5 4 3 4 6 6 6 4 3 3 4 6 8 8 8 8 8 8
4 5 6 10 10 9 6 5 3 2 1 1 2 2 2 3 3 4 5 5 5 5 5 5 6 6 7 7 6 6 6 6 5 6 7 9 9 8
5 6 7 10 11 10 7 6 4 2 1 2 2 3 4 4 4 4 4 4 4 5 6 6 6 6 8 9 8 6 6 6 6 7 6 5 8 11
8 11 9 7 8 8 8 5 4 3 4 4 4 4 4 4 4 3 3 2 4 4 3 5 6 7 7 9 9 8 8 7 6 6 7 7 7 6
9 10 9 8 7 6 5 4 6 6 5 5 4 4 4 4 4 4 5 5 5 4 2 4 5 7 8 9 9 9 8 7 7 7 8 8 8 7
6 5 5 5 5 6 6 6 6 5 5 5 5 4 4 5 5 5 5 6 6 6 6 5 5 6 8 9 9 8 8 8 7 7 8 9 8 7
4 6 6 6 6 5 5 5 6 6 6 5 5 5 5 6 6 5 6 6 7 7 7 7 8 8 8 5 4 8 8 8 8 8 9 9 9 8
5 7 6 6 6 6 6 6 6 6 5 5 5 5 5 6 6 6 6 7 7 7 7 7 7 8 10 9 5 3 9 9 9 9 8 9 9 8
7 7 6 6 6 6 5 5 5 5 5 5 5 6 6 6 6 7 6 8 8 8 8 7 7 8 10 10 11 10 6 8 9 9 10 10 9 8
7 7 6 6 6 5 5 5 5 5 6 5 5 6 6 6 6 7 7 6 8 8 8 8 7 8 9 9 9 9 7 5 6 8 10 10 10 9
6 6 6 6 5 5 5 5 5 5 5 5 6 6 6 6 6 7 7 8 7 8 9 8 9 8 8 8 9 10 10 9 7 9 9 8 8 9
6 5 5 5 5 5 5 5 6 5 6 6 6 6 6 6 6 6 7 7 8 8 9 9 8 8 8 8 9 9 12 12 9 8 5 6 10 12
Wind_Direction
222 216 233 228 235 243 249 259 270 267 238 195 219 198 222 231 177 225 231 190 201 215 224 229 232 234 236 237 239 242 243 244 245 246 248 250 253 255
234 235 237 235 230 236 242 247 258 271 278 265 222 233 259 257 184 237 242 176 200 214 222 228 232 235 236 238 241 243 244 245 245 244 245 247 249 250
223 225 228 246 242 237 233 239 241 249 260 266 247 217 230 270 243 250 245 235 213 198 210 222 230 234 236 238 241 245 248 249 249 249 250 250 250 250
220 226 232 228 229 250 245 242 242 248 258 268 274 250 227 243 252 260 260 249 260 182 196 214 225 231 235 239 243 246 249 252 254 255 255 254 254 254
222 223 231 235 232 234 238 243 241 235 244 260 262 264 253 247 253 254 260 264 269 212 191 203 212 224 234 238 241 243 246 249 253 255 257 257 258 259
226 226 230 235 236 239 238 245 251 252 244 252 259 255 248 245 258 268 264 247 263 278 271 238 210 215 227 230 232 236 241 248 254 256 257 259 260 261
220 225 226 229 299 282 273 260 251 249 250 249 256 259 263 277 274 278 281 281 265 271 280 273 247 239 227 219 218 222 236 247 254 257 260 262 263 263
210 210 199 169 140 124 44 16 347 287 279 278 274 282 296 294 299 296 298 292 288 306 290 281 280 277 276 272 158 184 219 243 255 263 267 268 268 266
201 207 221 169 170 184 161 162 56 7 344 296 294 304 308 315 309 297 300 299 299 308 297 285 285 285 284 329 100 137 199 244 267 273 275 275 273 272
153 183 178 131 137 195 176 143 114 68 16 276 320 329 335 329 306 295 293 284 271 269 292 286 296 298 301 302 132 147 184 251 274 280 281 282 280 276
91 69 71 91 53 59 133 131 120 112 95 87 70 65 41 9 337 304 301 292 292 296 325 294 301 305 295 281 193 172 205 230 246 258 267 273 277 278
94 79 61 58 53 44 106 116 110 77 55 120 126 158 159 91 340 332 325 311 311 312 18 320 309 313 298 294 308 282 253 232 234 243 250 258 270 280
97 83 68 64 62 54 53 60 42 349 45 55 61 50 39 27 18 14 356 332 324 321 349 332 316 314 303 304 305 302 303 302 288 270 240 235 240 258
90 87 85 81 75 66 63 49 24 345 49 59 52 41 28 20 15 8 4 351 335 319 322 323 311 315 309 303 303 305 304 301 301 303 304 267 243 239
86 90 90 91 98 85 67 42 28 42 45 45 41 33 20 11 345 341 333 311 277 283 321 329 312 311 304 301 306 309 309 308 308 310 310 309 305 294
102 104 101 86 84 86 86 65 58 48 35 40 33 23 8 0 355 351 338 329 318 317 324 314 306 304 298 302 300 300 304 306 311 313 315 307 301 299
107 106 95 90 77 69 65 57 50 51 44 34 24 14 5 356 352 350 340 324 321 325 325 321 311 297 288 289 296 302 306 306 310 321 309 301 300 301
95 92 82 72 66 61 59 58 51 41 27 19 14 7 360 353 347 345 340 334 331 329 327 329 325 315 301 284 288 305 310 314 316 311 302 301 303 307
87 81 76 69 61 54 49 45 41 38 17 10 9 4 354 346 343 343 340 337 333 328 328 328 326 323 318 317 325 322 319 315 311 311 311 307 305 310
74 74 71 66 58 50 46 40 34 28 18 8 7 2 354 347 345 344 343 346 332 325 325 329 337 337 326 317 311 307 301 308 315 315 314 309 304 299
70 68 63 59 56 49 41 33 28 23 15 358 7 359 352 345 346 342 337 337 317 323 330 331 341 315 298 297 298 308 320 306 291 297 307 307 310 312
66 65 60 54 49 39 32 23 20 20 11 1 2 351 345 341 342 336 335 333 331 332 328 323 321 314 312 310 311 313 315 316 294 254 254 275 306 315
63 59 58 53 45 32 23 20 15 14 9 359 352 345 342 340 336 332 330 329 328 329 325 322 324 322 318 313 313 315 318 319 316 314 302 227 238 253